Location: Milton
(43.5183°N, 79.8775°W)
Time: 13:30:50
(UTC+00:00)

Gurwin Techsat 1B - Pass Details

Date: 18 April 2024
Orbit: 811 x 812 km, 98.9° (Epoch: 26 May)

Event Time Altitude Azimuth Distance (km) Brightness Sun altitude
Rises 07:49:12 0° 27° (NNE) 3,345 13.0 -25.6°
Reaches altitude 10° 07:52:05 10° 43° (NE) 2,408 12.1 -25.2°
Maximum altitude 07:56:09 22° 93° (E) 1,708 10.7 -24.7°
Drops below altitude 10° 08:00:12 10° 143° (SE) 2,394 11.0 -24.2°
Enters shadow 08:00:54 - 148° (SSE) 2,605 11.1 -24.1°
